Flag for Germany Weather past 2 weeks in Schleswig, Schleswig-Holstein, Germany

Now
59 °F

Passing clouds.


Feels Like: 59 °F
Forecast: 56 / 67 °F
Wind: 1 mph from Southeast

Location: Schleswig

Current Time: Aug 28, 2014 at 11:43:44 AM

Latest Report: Aug 28, 2014 at 10:00 AM


Visibility: 22 mi

Pressure: 30.04 "Hg

Humidity: 77%

Dew point: 52 °F

Location of SchleswigLocation

Historic Weather in Schleswig — Graph

°F

Schleswig temperature yesterday

Maximum temperature yesterday: 70 °F (at 4:00 PM)
Minimum temperature yesterday: 47 °F (at 6:00 AM)
Average temperature yesterday: 58 °F

Past Weeks' High & Low Weather Summary

 TemperatureHumidityPressure
High70 °F (Aug 27, 4:00 PM)99% (Aug 26, 4:00 AM)30.05 "Hg (Aug 26, 4:00 AM)
Low42 °F (Aug 26, 7:00 AM)43% (Aug 27, 2:00 PM)29.38 "Hg (Aug 18, 11:00 AM)
Average56 °F82%29.79 "Hg
* Reported Aug 13 10:00 AM — Aug 28 10:00 AM, Schleswig, Weather by CustomWeather, © 2014

Note: Actual official high and low records may vary slightly from our data, if they occured in-between our weather recording intervals... More about our weather records

Advertising

Schleswig weather history for previous 24 hours

 ConditionsComfort  
Time TempWeatherWind HumidityBarometerVisibility
10:00 AM
Aug 28
59 °FPassing clouds.1 mph77%30.04 "Hg22 mi
9:00 AM55 °FSunny.1 mph85%30.05 "Hg9 mi
8:00 AM50 °FFog.1 mph96%30.04 "Hg4 mi
7:00 AM47 °FFog.1 mph98%30.05 "Hg2 mi
6:00 AM47 °FFog.1 mph99%30.04 "Hg4 mi
4:00 AM49 °FPassing clouds.2 mph99%30.04 "Hg6 mi
3:00 AM48 °FPassing clouds.2 mph98%30.04 "Hg5 mi
2:00 AM51 °FPassing clouds.2 mph98%30.04 "Hg6 mi
1:00 AM52 °FPassing clouds.3 mph97%30.04 "Hg7 mi
12:00 AM53 °FPassing clouds.3 mph95%30.04 "Hg12 mi
11:00 PM
Aug 27
54 °FPassing clouds.3 mph92%30.04 "Hg22 mi
10:00 PM56 °FPassing clouds.5 mph89%30.03 "Hg25 mi
9:00 PM58 °FPassing clouds.3 mph83%30.03 "Hg25 mi
8:00 PM62 °FPassing clouds.3 mph70%30.02 "Hg25 mi
7:00 PM65 °FPassing clouds.5 mph59%30.01 "Hg25 mi
6:00 PM67 °FPassing clouds.5 mph56%30.00 "Hg25 mi
5:00 PM66 °FScattered clouds.3 mph55%30.00 "Hg25 mi
4:00 PM70 °FPartly sunny.6 mph50%30.00 "Hg25 mi
3:00 PM68 °FPartly sunny.5 mph49%30.00 "Hg25 mi
2:00 PM69 °FScattered clouds.5 mph43%30.00 "Hg25 mi
1:00 PM69 °FPassing clouds.5 mph49%30.00 "Hg25 mi
12:00 PM67 °FPassing clouds.3 mph53%29.99 "Hg25 mi
11:00 AM64 °FPassing clouds.5 mph60%29.99 "Hg25 mi
Weather by CustomWeather, © 2014

See weather overviewHow to use our weather pages